FW2982 Weather Reports


Display with metric or nautical units.
time (UTC)temp
F
wind
direction
speed
MPH
gust
MPH
rain 1hr
in
rain 24hr
in
rain mn
in
humidity
%
barometer
mb
20260904115340 71 147 0.0 0.0 0.02 0.39 0.31 97 1012.8
20260904114836 71 147 0.0 2.0 0.02 0.39 0.31 97 1012.9
20260904114613 71 147 0.0 2.0 0.02 0.39 0.31 97 1012.8
20260904113833 70 147 0.0 2.0 0.01 0.39 0.30 97 1012.8
20260904113333 70 147 1.0 2.0 0.01 0.39 0.30 97 1012.7
20260904112834 70 147 0.0 1.0 0.02 0.39 0.30 97 1012.7
20260904112613 70 147 0.0 1.0 0.02 0.39 0.30 97 1012.6
20260904111833 70 147 0.0 0.0 0.02 0.39 0.30 97 1012.7
20260904111330 70 147 0.0 0.0 0.02 0.39 0.30 97 1012.7
20260904110831 70 147 0.0 0.0 0.02 0.39 0.30 97 1012.7
20260904110332 70 147 0.0 1.0 0.01 0.39 0.29 97 1012.6
20260904105832 70 147 0.0 1.0 0.01 0.38 0.29 97 1012.7
20260904105331 69 147 0.0 1.0 0.02 0.38 0.29 97 1012.8
20260904104833 70 147 0.0 1.0 0.02 0.38 0.29 97 1012.3
20260904104356 70 147 0.0 0.0 0.02 0.38 0.29 97 1012.7
20260904104347 70 147 0.0 1.0 0.02 0.38 0.29 97 1012.5
20260904103330 70 147 0.0 1.0 0.02 0.38 0.29 97 1012.5
20260904102831 70 147 0.0 1.0 0.01 0.38 0.28 97 1012.4
20260904102331 70 147 0.0 1.0 0.01 0.38 0.28 97 1012.3
20260904101831 70 147 0.0 2.0 0.02 0.38 0.28 97 1012.0
20260904101332 70 147 0.0 2.0 0.02 0.38 0.28 97 1011.9
20260904101111 70 147 1.0 2.0 0.02 0.38 0.28 97 1012.0
20260904100332 70 147 2.0 3.0 0.02 0.38 0.28 97 1012.1
20260904095832 70 148 0.0 3.0 0.03 0.35 0.28 97 1011.7
20260904095332 70 148 1.0 2.0 0.02 0.35 0.27 97 1011.6
20260904094832 70 149 0.0 0.0 0.02 0.35 0.27 97 1011.4
20260904094333 70 149 0.0 0.0 0.02 0.35 0.27 97 1011.3
20260904093831 70 149 0.0 0.0 0.02 0.35 0.27 96 1011.4
20260904093330 70 149 0.0 0.0 0.02 0.35 0.27 97 1011.3
20260904092833 70 149 0.0 0.0 0.03 0.35 0.27 97 1011.2
20260904092329 70 149 0.0 1.0 0.03 0.35 0.27 96 1011.1
20260904091852 70 149 0.0 1.0 0.03 0.35 0.26 97 1011.0
20260904091843 69 149 0.0 1.0 0.02 0.35 0.26 96 1011.1
20260904091105 69 149 0.0 0.0 0.03 0.35 0.26 96 1011.1
20260904090350 69 149 0.0 0.0 0.02 0.33 0.25 96 1011.3
20260904090341 69 149 0.0 0.0 0.03 0.35 0.26 96 1011.3
20260904085326 69 149 0.0 0.0 0.02 0.33 0.25 96 1011.4
20260904084824 69 149 0.0 0.0 0.03 0.33 0.25 96 1011.4
20260904084324 70 149 0.0 1.0 0.03 0.33 0.25 97 1011.5
20260904084101 70 149 0.0 1.0 0.03 0.33 0.25 97 1011.5
20260904083324 70 149 0.0 0.0 0.04 0.33 0.25 96 1011.5
20260904082823 70 149 0.0 0.0 0.03 0.33 0.24 96 1011.6
20260904082324 70 149 0.0 0.0 0.03 0.33 0.24 96 1011.5
20260904081824 70 149 0.0 0.0 0.03 0.33 0.24 96 1011.5
20260904081324 70 149 0.0 1.0 0.03 0.33 0.23 96 1011.5
20260904080823 70 149 0.0 1.0 0.03 0.33 0.23 96 1011.6
20260904080323 70 149 0.0 0.0 0.04 0.33 0.23 96 1011.5
20260904075823 70 149 0.0 0.0 0.04 0.29 0.23 96 1011.5
20260904075325 70 149 0.0 0.0 0.04 0.29 0.23 96 1011.5
20260904074824 70 149 0.0 0.0 0.03 0.29 0.22 96 1011.5
20260904074603 70 149 0.0 0.0 0.04 0.29 0.22 96 1011.5
20260904073825 70 149 0.0 1.0 0.04 0.29 0.22 96 1011.5
20260904073324 70 149 0.0 1.0 0.03 0.29 0.21 96 1011.5
20260904072823 70 149 0.0 2.0 0.04 0.29 0.21 96 1011.6
20260904072604 70 149 1.0 2.0 0.04 0.29 0.21 96 1011.6
20260904071822 70 149 0.0 0.0 0.04 0.29 0.21 96 1011.7
20260904071322 70 149 0.0 0.0 0.04 0.29 0.20 96 1011.8
20260904070822 70 149 0.0 0.0 0.04 0.29 0.20 96 1011.7
20260904070323 70 149 0.0 0.0 0.04 0.29 0.19 96 1011.8
20260904065824 70 149 0.0 0.0 0.04 0.25 0.19 96 1011.9
20260904065323 70 149 0.0 0.0 0.05 0.25 0.19 96 1011.9
20260904064823 70 149 0.0 2.0 0.05 0.25 0.19 96 1011.9
20260904064323 70 149 0.0 2.0 0.05 0.25 0.18 96 1011.8
20260904063822 70 154 2.0 2.0 0.05 0.25 0.18 96 1011.6
20260904063323 70 154 0.0 0.0 0.05 0.25 0.17 96 1011.3
20260904063101 70 154 0.0 0.0 0.05 0.25 0.17 96 1011.0
20260904062321 70 154 0.0 0.0 0.05 0.25 0.17 96 1010.9
20260904061821 70 154 0.0 0.0 0.06 0.25 0.17 96 1010.8
20260904061323 70 154 0.0 0.0 0.05 0.25 0.16 96 1010.8
20260904060822 70 154 0.0 0.0 0.06 0.25 0.15 96 1010.8
20260904060602 70 154 0.0 2.0 0.05 0.25 0.15 96 1010.7
20260904055821 70 154 1.0 2.0 0.06 0.19 0.15 96 1010.6
20260904055321 71 154 1.0 2.0 0.05 0.19 0.14 96 1010.5
20260904054821 70 154 0.0 0.0 0.06 0.19 0.14 96 1010.5
20260904054320 71 154 0.0 2.0 0.06 0.19 0.13 96 1010.6
20260904054059 71 154 0.0 2.0 0.06 0.19 0.13 96 1010.7
20260904053559 71 154 0.0 1.0 0.07 0.19 0.13 95 1011.3
20260904052818 71 154 0.0 1.0 0.07 0.19 0.12 95 1011.3
20260904052316 71 154 0.0 1.0 0.07 0.19 0.12 95 1011.5
20260904051815 71 154 0.0 3.0 0.07 0.19 0.11 95 1011.6
20260904051314 71 154 0.0 3.0 0.08 0.19 0.11 95 1011.6
20260904050812 71 154 0.0 3.0 0.08 0.19 0.10 95 1012.4
20260904050312 71 152 1.0 3.0 0.09 0.19 0.09 95 1012.6
20260904045810 71 90 1.0 2.0 0.09 0.10 0.09 95 1012.7
20260904045333 71 90 0.0 1.0 0.10 0.10 0.08 95 1012.7
20260904045323 71 90 1.0 2.0 0.10 0.10 0.09 95 1012.5
20260904044308 71 90 0.0 0.0 0.11 0.10 0.07 95 1013.0
20260904043803 71 90 0.0 1.0 0.12 0.10 0.06 95 1013.3
20260904043303 71 90 0.0 1.0 0.13 0.10 0.06 94 1013.5
20260904042803 71 90 0.0 1.0 0.14 0.10 0.05 94 1014.1
20260904042305 71 90 0.0 2.0 0.15 0.10 0.04 94 1014.3
20260904041802 71 90 1.0 2.0 0.14 0.10 0.03 94 1014.5
20260904041303 71 90 1.0 2.0 0.13 0.10 0.03 94 1014.6
20260904040802 71 89 1.0 3.0 0.12 0.10 0.02 94 1014.6
20260904040302 71 75 0.0 11.0 0.11 0.10 0.01 93 1014.7
20260904035825 71 86 2.0 5.0 0.09 0.00 0.08 93 1014.7
20260904035817 71 55 2.0 11.0 0.10 0.00 0.10 93 1014.6
20260904034802 71 313 1.0 10.0 0.08 0.00 0.07 92 1014.4
20260904034302 72 62 4.0 10.0 0.06 0.00 0.06 91 1014.5
20260904033803 74 32 3.0 16.0 0.05 0.00 0.04 91 1015.6
20260904033303 77 71 4.0 21.0 0.03 0.00 0.03 92 1015.9
20260904032803 79 286 7.0 21.0 0.01 0.00 0.01 94 1015.0
20260904032305 78 210 0.0 0.0 0.00 0.00 0.00 94 1012.6
20260904031803 78 210 0.0 1.0 0.00 0.00 0.00 94 1012.3
20260904031302 78 210 0.0 1.0 0.00 0.00 0.00 93 1011.9
20260904030803 78 209 0.0 1.0 0.00 0.00 0.00 94 1011.5
20260904030303 78 209 0.0 1.0 0.00 0.00 0.00 94 1011.4
20260904025804 78 209 0.0 0.0 0.00 0.00 0.00 93 1011.4
20260904025306 78 209 0.0 0.0 0.00 0.00 0.00 93 1011.5
20260904025039 78 209 0.0 0.0 0.00 0.00 0.00 93 1011.8
20260904024751 78 209 0.0 0.0 0.00 0.00 0.00 93 1011.7
20260904023735 78 209 0.0 0.0 0.00 0.00 0.00 93 1011.9
20260904023510 78 209 0.0 0.0 0.00 0.00 0.00 93 1012.0
20260904022730 78 209 0.0 0.0 0.00 0.00 0.00 93 1012.0
20260904022511 78 209 0.0 0.0 0.00 0.00 0.00 92 1012.1
20260904021718 78 209 0.0 0.0 0.00 0.00 0.00 92 1012.0
20260904021217 79 209 0.0 0.0 0.00 0.00 0.00 92 1012.1
20260904020717 79 209 0.0 0.0 0.00 0.00 0.00 92 1012.0
20260904020216 79 209 0.0 0.0 0.00 0.00 0.00 92 1012.1
20260904015717 79 209 0.0 0.0 0.00 0.00 0.00 92 1012.0
20260904015216 79 209 0.0 0.0 0.00 0.00 0.00 92 1012.0
20260904014708 79 209 0.0 0.0 0.00 0.00 0.00 92 1012.1
20260904014203 79 209 0.0 0.0 0.00 0.00 0.00 92 1012.0
20260904013706 79 209 0.0 0.0 0.00 0.00 0.00 91 1011.9
20260904013206 79 209 0.0 0.0 0.00 0.00 0.00 91 1012.0
20260904012703 79 209 0.0 0.0 0.00 0.00 0.00 91 1012.1
20260904012206 79 209 0.0 0.0 0.00 0.00 0.00 91 1012.0
20260904011702 80 209 0.0 0.0 0.00 0.00 0.00 91 1011.8
20260904011205 79 209 0.0 0.0 0.00 0.00 0.00 91 1011.9
20260904010702 79 209 0.0 0.0 0.00 0.00 0.00 91 1011.9
20260904010511 80 209 0.0 0.0 0.00 0.00 0.00 90 1012.0
20260904010221 79 209 0.0 0.0 0.00 0.00 0.00 91 1011.9
20260904005204 80 209 0.0 0.0 0.00 0.00 0.00 90 1011.9
20260904005156 80 209 0.0 0.0 0.00 0.00 0.00 90 1012.1
20260904004132 80 209 0.0 0.0 0.00 0.00 0.00 90 1012.3
20260904003634 80 209 0.0 0.0 0.00 0.00 0.00 90 1012.4
20260904003131 80 209 0.0 0.0 0.00 0.00 0.00 90 1012.5
20260904002633 80 209 0.0 0.0 0.00 0.00 0.00 89 1012.6
20260904002131 81 209 0.0 1.0 0.00 0.00 0.00 89 1012.6
20260904001630 81 209 0.0 1.0 0.00 0.00 0.00 88 1012.7
20260904001111 81 209 0.0 0.0 0.00 0.00 0.00 87 1012.6
20260904000609 81 209 0.0 0.0 0.00 0.00 0.00 87 1012.6
20260904000109 81 209 0.0 0.0 0.00 0.00 0.00 87 1012.7
20260903235609 82 209 0.0 0.0 0.00 0.00 0.00 86 1012.6
20260903235111 82 209 0.0 0.0 0.00 0.00 0.00 85 1012.5
20260903234609 82 209 0.0 0.0 0.00 0.00 0.00 86 1012.5
20260903234108 82 209 0.0 0.0 0.00 0.00 0.00 85 1012.3
20260903233848 82 209 0.0 0.0 0.00 0.00 0.00 85 1011.9
20260903233109 83 209 0.0 1.0 0.00 0.00 0.00 85 1011.9
20260903232604 83 209 0.0 1.0 0.00 0.00 0.00 84 1011.7
20260903232104 84 209 0.0 0.0 0.00 0.00 0.00 83 1011.8
20260903231844 84 209 0.0 0.0 0.00 0.00 0.00 83 1011.7
20260903231345 84 209 0.0 0.0 0.00 0.00 0.00 82 1011.7
20260903230558 85 209 0.0 0.0 0.00 0.00 0.00 81 1011.7
20260903230058 85 209 0.0 0.0 0.00 0.00 0.00 80 1011.6
20260903225833 85 209 0.0 0.0 0.00 0.00 0.00 80 1011.6
20260903225052 85 209 0.0 0.0 0.00 0.00 0.00 79 1011.6
20260903224552 86 209 0.0 1.0 0.00 0.00 0.00 78 1011.5
20260903224055 87 209 0.0 1.0 0.00 0.00 0.00 77 1011.5
20260903223532 87 209 0.0 1.0 0.00 0.00 0.00 76 1011.4
20260903223034 87 209 0.0 3.0 0.00 0.00 0.00 75 1011.3
20260903222532 87 209 0.0 5.0 0.00 0.00 0.00 74 1011.4
20260903222033 88 245 1.0 5.0 0.00 0.00 0.00 74 1011.3
20260903221531 88 213 0.0 2.0 0.00 0.00 0.00 74 1011.3
20260903221305 88 230 0.0 0.0 0.00 0.00 0.00 75 1011.3
20260903220518 87 230 0.0 4.0 0.00 0.00 0.00 75 1011.4
20260903220012 88 228 0.0 4.0 0.00 0.00 0.00 74 1011.3
20260903215511 88 344 1.0 3.0 0.00 0.00 0.00 73 1011.4
20260903215031 89 252 1.0 5.0 0.00 0.00 0.00 71 1011.4
20260903215023 89 224 1.0 3.0 0.00 0.00 0.00 72 1011.4
20260903214012 89 0 2.0 5.0 0.00 0.00 0.00 70 1011.3
20260903213511 89 312 0.0 3.0 0.00 0.00 0.00 72 1011.4
20260903213012 89 341 0.0 3.0 0.00 0.00 0.00 72 1011.4
20260903212507 90 303 1.0 3.0 0.00 0.00 0.00 68 1011.3
20260903212030 90 257 1.0 5.0 0.00 0.00 0.00 69 1011.5
20260903212023 90 255 1.0 5.0 0.00 0.00 0.00 67 1011.4
20260903211007 90 299 0.0 3.0 0.00 0.00 0.00 67 1011.5
20260903210505 90 303 1.0 4.0 0.00 0.00 0.00 68 1011.5
20260903210005 90 0 0.0 4.0 0.00 0.00 0.00 68 1011.5
20260903205749 91 310 2.0 3.0 0.00 0.00 0.00 66 1011.5
20260903205005 91 276 1.0 2.0 0.00 0.00 0.00 65 1011.6
20260903204505 91 288 0.0 6.0 0.00 0.00 0.00 65 1011.6
20260903204006 91 285 1.0 6.0 0.00 0.00 0.00 65 1011.7
20260903203505 91 306 1.0 4.0 0.00 0.00 0.00 66 1011.8
20260903203004 91 276 2.0 4.0 0.00 0.00 0.00 66 1011.8
20260903202504 91 251 1.0 3.0 0.00 0.00 0.00 67 1011.8
20260903202005 91 334 1.0 5.0 0.00 0.00 0.00 67 1011.8
20260903201504 91 268 3.0 5.0 0.00 0.00 0.00 67 1011.9
20260903201004 91 240 1.0 4.0 0.00 0.00 0.00 69 1012.0
20260903200505 91 230 1.0 3.0 0.00 0.00 0.00 67 1012.1
20260903200243 91 144 1.0 4.0 0.00 0.00 0.00 67 1012.1
20260903195503 91 204 2.0 4.0 0.00 0.00 0.00 66 1012.3
20260903195244 91 295 1.0 3.0 0.00 0.00 0.00 66 1012.4
20260903194504 92 286 1.0 4.0 0.00 0.00 0.00 66 1012.6
20260903194004 91 209 2.0 4.0 0.00 0.00 0.00 68 1012.6
20260903193503 91 189 1.0 4.0 0.00 0.00 0.00 68 1012.6
20260903193003 91 275 1.0 3.0 0.00 0.00 0.00 69 1012.7
20260903192744 90 274 1.0 3.0 0.00 0.00 0.00 69 1012.7
20260903192006 91 347 0.0 4.0 0.00 0.00 0.00 65 1013.0
20260903191502 91 340 1.0 4.0 0.00 0.00 0.00 67 1013.1
20260903191003 90 0 1.0 4.0 0.00 0.00 0.00 70 1013.2
20260903190504 89 351 2.0 4.0 0.00 0.00 0.00 72 1013.2
20260903185931 89 299 0.0 3.0 0.00 0.00 0.00 72 1013.4
20260903185431 88 190 1.0 3.0 0.00 0.00 0.00 72 1013.4
20260903184932 87 281 0.0 0.0 0.00 0.01 0.00 75 1013.5
20260903184710 87 281 0.0 0.0 0.00 0.01 0.00 74 1013.3
20260903183932 86 281 0.0 0.0 0.00 0.02 0.00 75 1013.5
20260903183431 86 283 0.0 0.0 0.00 0.03 0.00 77 1013.5
20260903182930 86 283 0.0 1.0 0.00 0.05 0.00 76 1013.5
20260903182520 87 275 1.0 3.0 0.00 0.13 0.00 74 1013.5
20260903182505 86 283 0.0 2.0 0.00 0.07 0.00 76 1013.4
20260903182231 86 283 0.0 3.0 0.00 0.09 0.00 74 1013.5
20260903180932 88 347 1.0 2.0 0.00 0.18 0.00 73 1013.8
20260903180711 88 285 1.0 2.0 0.00 0.18 0.00 71 1013.8
20260903175931 87 357 0.0 2.0 0.00 0.18 0.00 73 1013.9
20260903175431 87 357 0.0 2.0 0.00 0.18 0.00 71 1014.0
20260903174932 88 288 1.0 3.0 0.00 0.18 0.00 72 1013.9
20260903174431 87 290 1.0 3.0 0.00 0.18 0.00 70 1013.7
20260903173931 87 209 2.0 3.0 0.00 0.18 0.00 71 1013.8
20260903173432 87 209 0.0 3.0 0.00 0.18 0.00 73 1014.1
20260903173214 87 189 1.0 3.0 0.00 0.18 0.00 72 1014.4
20260903172712 87 275 0.0 2.0 0.00 0.18 0.00 72 1014.5
20260903171931 87 323 1.0 2.0 0.00 0.18 0.00 72 1014.7
20260903171432 87 87 0.0 2.0 0.00 0.18 0.00 72 1014.8
20260903170932 87 87 0.0 2.0 0.00 0.18 0.00 73 1014.9
20260903170433 86 89 0.0 3.0 0.00 0.18 0.00 73 1014.9
20260903170213 87 78 2.0 3.0 0.00 0.18 0.00 70 1015.1
20260903165431 87 305 0.0 3.0 0.00 0.18 0.00 74 1015.0
20260903164931 86 200 0.0 3.0 0.00 0.18 0.00 73 1015.1
20260903164433 86 165 0.0 4.0 0.00 0.18 0.00 73 1015.2
20260903163933 85 179 1.0 5.0 0.00 0.18 0.00 74 1015.4
20260903163431 85 59 2.0 5.0 0.00 0.18 0.00 76 1015.4
20260903162930 84 54 1.0 5.0 0.00 0.18 0.00 77 1015.4
20260903162711 84 58 1.0 5.0 0.00 0.18 0.00 77 1015.5
20260903161921 85 37 1.0 5.0 0.00 0.18 0.00 78 1015.7
20260903161706 84 265 2.0 3.0 0.00 0.18 0.00 79 1015.7
20260903160919 83 54 1.0 3.0 0.00 0.18 0.00 83 1015.6
20260903160415 82 299 0.0 2.0 0.00 0.18 0.00 83 1015.8
20260903160155 83 302 0.0 2.0 0.00 0.18 0.00 85 1016.0
20260903155652 82 303 1.0 5.0 0.00 0.18 0.00 85 1016.1
20260903155217 81 93 1.0 2.0 0.00 0.18 0.00 86 1016.4
20260903155212 81 307 2.0 5.0 0.00 0.18 0.00 85 1016.2
20260903153913 81 327 0.0 1.0 0.00 0.18 0.00 85 1016.5
20260903153410 82 327 0.0 3.0 0.00 0.18 0.00 84 1016.4
20260903152911 82 327 1.0 3.0 0.00 0.18 0.00 84 1015.7
20260903152412 81 314 0.0 2.0 0.00 0.18 0.00 85 1015.6
20260903151912 81 293 1.0 2.0 0.00 0.18 0.00 85 1015.7
20260903151650 81 238 0.0 2.0 0.00 0.18 0.00 85 1015.7
20260903150909 81 238 1.0 5.0 0.00 0.18 0.00 84 1015.7
20260903150652 81 240 1.0 5.0 0.00 0.18 0.00 86 1015.7
20260903145909 81 336 0.0 3.0 0.00 0.18 0.00 86 1015.6
20260903145407 81 292 0.0 2.0 0.00 0.18 0.00 86 1015.5
20260903144909 80 300 0.0 2.0 0.00 0.18 0.00 87 1015.4
20260903144408 81 298 0.0 2.0 0.00 0.18 0.00 87 1015.5
20260903143907 81 299 0.0 3.0 0.00 0.18 0.00 86 1015.5
20260903143403 81 299 1.0 3.0 0.00 0.18 0.00 88 1015.5
20260903142904 80 6 0.0 2.0 0.00 0.18 0.00 89 1015.5
20260903142404 80 337 0.0 2.0 0.00 0.18 0.00 90 1015.5
20260903141903 79 337 0.0 2.0 0.00 0.18 0.00 90 1015.3
20260903141404 80 338 0.0 2.0 0.00 0.18 0.00 92 1015.4
20260903140903 77 102 1.0 2.0 0.00 0.18 0.00 93 1015.2
20260903140403 78 228 0.0 2.0 0.00 0.18 0.00 95 1015.0
20260903135906 77 214 0.0 2.0 0.00 0.18 0.00 96 1015.1
20260903135641 77 214 0.0 2.0 0.00 0.18 0.00 97 1015.2
20260903134903 75 214 0.0 2.0 0.00 0.18 0.00 97 1015.1
20260903134645 74 190 0.0 2.0 0.00 0.18 0.00 97 1015.0
20260903133902 74 190 0.0 2.0 0.00 0.18 0.00 97 1014.9
20260903133402 74 190 1.0 3.0 0.00 0.18 0.00 97 1015.2
20260903132904 74 189 1.0 4.0 0.00 0.18 0.00 97 1015.1
20260903132402 74 127 0.0 4.0 0.00 0.18 0.00 97 1015.4
20260903131902 74 41 1.0 3.0 0.00 0.18 0.00 97 1015.3
20260903131404 74 210 0.0 3.0 0.00 0.18 0.00 97 1015.5
20260903130902 74 185 1.0 3.0 0.00 0.18 0.00 97 1015.6
20260903130404 74 76 0.0 1.0 0.00 0.18 0.00 97 1015.8
20260903125902 74 76 0.0 0.0 0.00 0.18 0.00 97 1016.0
20260903125403 74 76 0.0 1.0 0.00 0.18 0.00 97 1016.0
20260903124902 74 76 0.0 2.0 0.00 0.18 0.00 98 1016.2
20260903124403 73 75 0.0 2.0 0.00 0.18 0.00 97 1016.1
20260903123902 73 75 0.0 3.0 0.00 0.18 0.00 97 1016.2
20260903123401 73 75 1.0 3.0 0.00 0.18 0.00 97 1016.3
20260903122903 73 65 0.0 2.0 0.00 0.18 0.00 97 1016.3
20260903122640 73 65 0.0 3.0 0.00 0.18 0.00 97 1016.3
20260903121902 72 65 0.0 3.0 0.00 0.18 0.00 97 1016.4
20260903121641 72 68 0.0 3.0 0.00 0.18 0.00 97 1016.4
20260903120903 72 35 1.0 4.0 0.00 0.18 0.00 97 1016.4
20260903120403 72 59 1.0 4.0 0.00 0.18 0.00 97 1016.6
20260903115905 72 52 1.0 3.0 0.00 0.18 0.00 97 1016.6